Location: Bédeille
(43.0872°N, 1.1041°E)
Time: 01:49:32
(UTC+00:00)

SL-16 R/B - Pass Details

Date: 03 February 2023
Orbit: 842 x 846 km, 71.0° (Epoch: 27 March)

Event Time Altitude Azimuth Distance (km) Brightness Sun altitude
Rises 18:28:52 0° 219° (SW) 3,386 6.1 -14.6°
Reaches altitude 10° 18:31:22 10° 224° (SW) 2,456 5.4 -15.1°
Maximum altitude 18:36:50 50° 300° (WNW) 1,061 3.0 -16.1°
Drops below altitude 10° 18:42:21 10° 16° (NNE) 2,473 4.4 -17.1°
Enters shadow 18:44:38 - 21° (NNE) 3,314 5.0 -17.5°
